Regional Weather Roundup
Issued by NWS

Home | Current Version | Previous Version | Graphics & Text | Print | Product List | Glossary On
Versions: 1 2 3 4 5 6 7 8 9 10 11 12 13 14 15 16 17 18 19 20 21 22 23 24 25 26 27 28 29 30 31 32 33 34 35 36 37 38 39 40 41 42 43 44 45 46 47 48 49 50
000
ASUS45 KBOU 290807
RWRCO

WEATHER ROUNDUP FOR COLORADO
NATIONAL WEATHER SERVICE DENVER/BOULDER CO
200 AM MDT SUN MAR 29 2015

NOTE: "FAIR" INDICATES FEW OR NO CLOUDS BELOW 12000 FEET WITH NO
SIGNIFICANT WEATHER AND/OR OBSTRUCTIONS TO VISIBILITY.

COZ001>005-013-030-031-290900-
...NORTHWEST COLORADO...

CITY           SKY/WX    TMP DP  RH WIND       PRES   REMARKS
CRAIG          CLEAR     38  19  46 S7        30.22R
HAYDEN         CLEAR     39  16  38 S7        30.23S
MEEKER         PTCLDY    52  13  21 NW7       30.22S
MOUNT WERNER   NOT AVBL
STEAMBOAT SPGS CLEAR     40  27  61 SE7       30.23S
WALDEN         CLEAR     36  14  41 NW7       30.25R
$$

COZ006>008-011-290900-
...WEST CENTRAL VALLEYS...

CITY           SKY/WX    TMP DP  RH WIND       PRES   REMARKS
GRAND JUNCTION MOCLDY    53  22  29 CALM      30.12R
MONTROSE       PTCLDY    48  25  40 SE7       30.18S
EAGLE          MOCLDY    48  37  66 SE3       30.23R
RIFLE          MOCLDY    60  18  19 VRB5      30.16R
DELTA          PTCLDY    52  25  35 CALM      30.14S
NUCLA          PTCLDY    46  21  36 E12       30.22S
$$

COZ017>023-064>068-290900-
...SOUTHWEST COLORADO...

CITY           SKY/WX    TMP DP  RH WIND       PRES   REMARKS
DURANGO        CLEAR     41  23  48 N3        30.21F
CORTEZ         CLEAR     37  21  52 E7        30.20R
PAGOSA SPRINGS CLEAR     38  22  51 CALM      30.27S
TELLURIDE      NOT AVBL
WOLF CREEK PAS CLEAR     34  16  47 SW18      30.46S WCI  23
$$

COZ009-010-012-014-032>034-037-058>063-290900-
...CENTRAL COLORADO...

CITY           SKY/WX    TMP DP  RH WIND       PRES   REMARKS
ASPEN          CLOUDY    45  31  58 SW8       30.26R
BUENA VISTA    PTCLDY    46  27  47 NW8G23    30.23F
COPPER MTN     LGT SNOW  34  27  75 W28G36    30.38F WCI  20
BERTHOUD PASS  CLOUDY    27  19  74 W32G41    30.37F WCI  10
COTTONWOOD PAS PTCLDY    45  21  39 NW18G38   30.28S
GUNNISON       PTCLDY    37  23  56 CALM      30.28F
KREMMLING      PTCLDY    43  10  26 W5        30.23F
LEADVILLE      CLOUDY    34  26  72 SW5       30.33R WCI  30
SALIDA         PTCLDY    51  28  41 NW6G16    30.27F
SUNLIGHT       CLOUDY    39  16  38 CALM      30.41R
WILKERSON PASS PTCLDY    32  25  74 W16G28    30.32F WCI  21
$$

COZ069>075-290900-
...SAN LUIS VALLEY/SANGRE DE CRISTO MOUNTAINS...

CITY           SKY/WX    TMP DP  RH WIND       PRES   REMARKS
ALAMOSA        PTCLDY    39  20  46 W8        30.21S
LA VETA PASS   CLEAR     39  18  41 SW6       30.29S
SAGUACHE       CLEAR     43  19  39 NW6       30.24R
$$

COZ035-036-038>040-290900-
...NORTHERN COLORADO FRONT RANGE...

CITY           SKY/WX    TMP DP  RH WIND       PRES   REMARKS
DENVER INTL AP PTCLDY    55  28  35 W10       30.05R
DMNS CITY PARK   N/A     59  19  20 NW9       30.06R
AURORA         PTCLDY    58  23  25 W14       30.08R
FRONT RANGE AP PTCLDY    55  32  41 W13       30.06R
ERIE MUNI ARPT PTCLDY    47  31  52 CALM      30.03R
BOULDER MUN AP PTCLDY    61  16  17 NW5       30.03R
CENTENNIAL     PTCLDY    52  29  41 W8        30.08R
BROOMFIELD     PTCLDY    61  12  15 W21G31    30.06R
FORT COLLINS   PTCLDY    61  18  18 W16       30.05R
LONGMONT       PTCLDY    61  24  24 W5        30.04S
$$

COZ041-046-047-076>085-087-088-290900-
...PIKES PEAK/PALMER DIVIDE AND SOUTHERN FOOTHILLS...

CITY           SKY/WX    TMP DP  RH WIND       PRES   REMARKS
COLO. SPRINGS  PTCLDY    60  24  25 NW20G30   30.09R
A. F. ACADEMY  CLEAR     53  25  33 NW5       30.11R
ELLICOTT       CLEAR    N/A N/A N/A N10       30.06R
FALCON         CLEAR     49  25  39 NW10      30.12F
FORT CARSON    PTCLDY    53  22  30 NW6       30.05R
LIMON          PTCLDY    51  31  46 NW18      30.02R
MONUMENT HILL  CLEAR     43  30  61 NW7       30.13R
TRINIDAD       CLEAR     52  24  33 SW14      30.06R
$$

COZ042>045-048>051-090-091-290900-
...NORTHEAST COLORADO...

CITY           SKY/WX    TMP DP  RH WIND       PRES   REMARKS
GREELEY ARPT   PTCLDY    52  19  28 N20       30.02R
AKRON          CLOUDY    54  28  36 N20       30.02R
BURLINGTON     PTCLDY    58  29  33 NW15      29.96R
WRAY           CLOUDY    65  29  26 N22G39    29.95R
STERLING       CLOUDY    54  32  43 N14G20    30.03R
HOLYOKE        NOT AVBL
FORT MORGAN    CLOUDY    53 -23   4 N18       30.04R
$$

COZ086-089-092>099-290900-
...SOUTHEAST COLORADO...

CITY           SKY/WX    TMP DP  RH WIND       PRES   REMARKS
PUEBLO         CLEAR     57  23  26 NW15      29.99R
LA JUNTA       CLEAR     54  26  34 W15       29.95R
LAMAR          CLEAR     47  29  49 W12       29.90R
SPRINGFIELD      N/A     52  25  35 SW13      29.93F
$$


USA.gov is the U.S. government's official web portal to all federal, state and local government web resources and services.